This is the latest recevied weather packets stored in our database for station/object NI4CE-11. If no packets are shown the sender has not sent any weather packets the latest 10 day(s).
| Time | Temp. | Humidity | Pressure | Rain* | Wind** | Luminosity | Snow |
|---|---|---|---|---|---|---|---|
| 1777292733 | 24.44° C | 100% | 1015.6 hPa | 0 mm | - | - | - |
| 1777292433 | 23.89° C | 100% | 1015.6 hPa | 0 mm | - | - | - |
| 1777292133 | 24.44° C | 100% | 1015.5 hPa | 0 mm | - | - | - |
| 1777291833 | 23.89° C | 100% | 1015.4 hPa | 0 mm | - | - | - |
| 1777291533 | 23.33° C | 100% | 1015.4 hPa | 0 mm | - | - | - |
| 1777291233 | 23.89° C | 100% | 1015.3 hPa | 0 mm | - | - | - |
| 1777290933 | 23.33° C | 100% | 1015.3 hPa | 0 mm | - | - | - |
| 1777290737 | 22.78° C | 100% | 1015.2 hPa | 0 mm | - | - | - |
| 1777290633 | 22.78° C | 100% | 1015.2 hPa | 0 mm | - | - | - |
| 1777290510 | 23.33° C | 100% | 1015 hPa | 0 mm | - | - | - |
| 1777290334 | 23.33° C | 100% | 1015 hPa | 0 mm | - | - | - |
| 1777290033 | 22.78° C | 100% | 1015.1 hPa | 0 mm | - | - | - |
| 1777289733 | 22.22° C | 100% | 1015 hPa | 0 mm | - | - | - |
| 1777289433 | 21.11° C | 100% | 1014.9 hPa | 0 mm | - | - | - |
| 1777289133 | 21.67° C | 100% | 1014.7 hPa | 0 mm | - | - | - |
| 1777288833 | 22.22° C | 100% | 1014.7 hPa | 0 mm | - | - | - |
| 1777288533 | 21.11° C | 100% | 1014.7 hPa | 0 mm | - | - | - |
| 1777288246 | 20° C | 100% | 1014.5 hPa | 0 mm | - | - | - |
| 1777288233 | 21.67° C | 100% | 1014.6 hPa | 0 mm | - | - | - |
| 1777287934 | 20.56° C | 100% | 1014.6 hPa | 0 mm | - | - | - |
| 1777287634 | 20.56° C | 100% | 1014.5 hPa | 0 mm | - | - | - |
| 1777287334 | 20° C | 100% | 1014.5 hPa | 0 mm | - | - | - |
| 1777287260 | 21.67° C | 100% | 1014.2 hPa | 0 mm | - | - | - |
| 1777287034 | 20.56° C | 100% | 1014.4 hPa | 0 mm | - | - | - |
| 1777286734 | 21.11° C | 100% | 1014.3 hPa | 0 mm | - | - | - |
* Rain latest hour (hover to see other rain measurements)
** Current wind speed in m/s (hover to see current wind gust speed)